Regional Weather Roundup
Issued by NWS New Orleans/Baton Rouge, LA

Home | Current Version | Previous Version | Text Only | Print | Product List | Glossary On
Versions: 1 2 3 4 5 6 7 8 9 10 11 12 13 14 15 16 17 18 19 20 21 22 23 24 25 26 27 28 29 30 31 32 33 34 35 36 37 38 39 40 41 42 43 44 45 46 47 48 49 50
653
ASUS44 KLIX 021605
RWRLIX
NEW ORLEANS REGIONAL WEATHER ROUNDUP
NATIONAL WEATHER SERVICE NEW ORLEANS LA
1000 AM CST MON MAR 02 2015

NOTE: "FAIR" INDICATES FEW OR NO CLOUDS BELOW 12,000 FEET WITH NO
      SIGNIFICANT WEATHER AND/OR OBSTRUCTIONS TO VISIBILITY.
      SKY/WX - SKY CONDITION AND SIGNIFICANT WEATHER.
      TMP - AIR TEMPERATURE.     DP    - DEWPOINT TEMPERATURE.
      RH  - RELATIVE HUMIDITY.   PRES  - PRESSURE.
      HI  - HEAT INDEX.          WCI   - WIND CHILL INDEX.

*  THESE STATIONS ARE NOT NWS OR FAA STATIONS AND ARE NOT UNDER
   NWS QUALITY CONTROL.

LAZ038-040-048-061>063-065>067-069-021700-
SOUTHEAST LOUISIANA

CITY           SKY/WX    TMP DP  RH WIND       PRES   REMARKS
N.O. AUDUBON     N/A     70  70 100 MISG        N/A
N.O. INTL ARPT CLOUDY    70  67  90 S6        30.28S
N.O. LAKEFRONT CLOUDY    71  65  81 S9        30.28F
SLIDELL        CLOUDY    69  67  93 SE6       30.28S
BATON ROUGE    FOG       62  61  96 E5        30.28S VSB 1/2
BOOTHVILLE     SUNNY     72  68  87 S10       30.29S
BELLE CHASSE   CLOUDY    72  67  84 S7        30.28S
BOGALUSA*      FOG       63  60  90 E5        30.30F VSB 3/4
GALLIANO*      FOG       53  53  97 CALM      30.29S VSB 1/4
NEW ROADS*     HVY RAIN  56  55  99 CALM      30.29R
GONZALES*      CLOUDY    64  64 100 CALM      30.29R FOG
HAMMOND*       CLOUDY    63  61  94 CALM      30.30S FOG
HOUMA*         CLOUDY    72  70  94 CALM      30.28S FOG
PORT FOURCHON* PTSUNNY   68  68 100 SE7       30.31F

$$

MSZ070-080>082-021700-
SOUTHERN MISSISSIPPI

CITY           SKY/WX    TMP DP  RH WIND       PRES   REMARKS
MCCOMB         LGT RAIN  62  61  96 CALM      30.29S VSB 1
GULFPORT       FOG       63  62  97 SE6       30.30R VSB 1/4
BILOXI         FOG       63  63 100 E5        30.29S VSB 1/4
PASCAGOULA     CLOUDY    64  64 100 SE3       30.31R FOG
STENNIS ARPT*  FOG       63  59  88 CALM      30.30S VSB 1/2

$$

COASTAL OBSERVATIONS
LAKE AND NEARSHORE STATIONS

STATION/POSITION TIME  TEMP    WIND        PRES    WAVE
                       AIR SEA DIR/SP/G            HT/PER
                 (UTC) (F)     (DEG/KT/KT) (MB)    (FT/S)
PASCAGOULA       1600   62     100/  4/  7 1025.7
WAVELAND YACHT   1600   60 54   90/  3/  4 1025.7
GRAND ISLE       1600   65 60  100/  4/  5 1026.0
SOUTHWEST PASS   1600   63 46  120/ 14/ 15 1025.8
NEW CANAL        1600   70     200/  5/  7 1025.8
SHELL BEACH      1600   69 55  190/  8/ 10 1025.1

OFFSHORE STATIONS

STATION/POSITION TIME  TEMP    WIND        PRES    WAVE
                       AIR SEA DIR/SP/G            HT/PER
                 (UTC) (F)     (DEG/KT/KT) (MB)    (FT/S)
64 S DAUPHIN ISL 1537   70 71  160/ 14/ 16 1025.9    3/ 5

$$




USA.gov is the U.S. government's official web portal to all federal, state and local government web resources and services.